Weather History for Melfa, VA

Change the Weather History Date:

Tuesday, December 31, 2013

  Actual Average (KWAL) Record (KWAL)
Temperature  
Mean Temperature 42 °F 37 °F  
Max Temperature 50 °F 46 °F 70 °F (1990)
Min Temperature 32 °F 29 °F 5 °F (1993)
Degree Days  
Heating Degree Days 24    
Month to date heating degree days  
Since 1 July heating degree days  
Cooling Degree Days 0    
Month to date cooling degree days  
Year to date cooling degree days  
Moisture  
Dew Point 26 °F    
Average Humidity 57    
Maximum Humidity 81    
Minimum Humidity 46    
Precipitation  
Precipitation 0.00 in 0.09 in 0.23 in (2002)
Month to date precipitation 3.43  
Year to date precipitation 40.84  
Sea Level Pressure  
Sea Level Pressure 30.21 in    
Wind  
Wind Speed 6 mph (NNW)    
Max Wind Speed 15 mph    
Max Gust Speed 22 mph    
Visibility 10 miles    
Events      
T = Trace of Precipitation, MM = Missing Value Source: NWS Daily Summary

Daily Weather History Graph

Daily Weather History Graph

Search for Another Location

Airport:

Trip Planner

Search our weather history database for the weather conditions in past years. The results will help you decide how hot, cold, wet, or windy it might be!

Date:

Astronomy

Dec. 31, 2013 Rise Set
Actual Time 7:17 AM EST 4:54 PM EST
Civil Twilight 6:48 AM EST 5:23 PM EST
Nautical Twilight 6:15 AM EST 5:56 PM EST
Astronomical Twilight 5:44 AM EST 6:28 PM EST
Moon 6:09 AM EST (12/31) 4:27 PM EST (12/31)
Length of Visible Light 10h 35m
Length of Day
9h 36m
Waning Crescent, 1% of the Moon is Illuminated
Dec 31
Waning Crescent
Jan 1
New
Jan 7
First Quarter
Jan 15
Full
Jan 24
Last Quarter

Hourly Weather History & Observations

Time (EST) Temp. Windchill Dew Point Humidity Pressure Visibility Wind Dir Wind Speed Gust Speed Precip Events Conditions
12:15 AM 42.8 °F 38.0 °F 30.2 °F 61% 30.15 in 10.0 mi North 8.1 mph - N/A   Overcast
12:35 AM 41.0 °F 37.1 °F 24.8 °F 53% 30.16 in 10.0 mi NNE 5.8 mph - N/A   Overcast
12:55 AM 39.2 °F 33.0 °F 26.6 °F 61% 30.16 in 10.0 mi North 9.2 mph - N/A   Overcast
1:15 AM 39.2 °F 33.6 °F 24.8 °F 56% 30.16 in 10.0 mi NNE 8.1 mph - N/A   Overcast
1:35 AM 39.2 °F 33.6 °F 24.8 °F 56% 30.16 in 10.0 mi NNE 8.1 mph - N/A   Overcast
1:55 AM 39.2 °F 33.0 °F 23.0 °F 52% 30.15 in 10.0 mi NNE 9.2 mph - N/A   Overcast
2:15 AM 39.2 °F 34.2 °F 23.0 °F 52% 30.16 in 10.0 mi NNE 6.9 mph - N/A   Overcast
2:35 AM 39.2 °F 35.9 °F 23.0 °F 52% 30.16 in 10.0 mi NNE 4.6 mph - N/A   Overcast
2:57 AM 39.2 °F 35.0 °F 23.0 °F 52% 30.15 in 10.0 mi NE 5.8 mph - N/A   Mostly Cloudy
3:15 AM 39.2 °F 34.2 °F 23.0 °F 52% 30.16 in 10.0 mi NNE 6.9 mph - N/A   Mostly Cloudy
3:35 AM 37.4 °F 33.8 °F 23.0 °F 56% 30.16 in 10.0 mi NNE 4.6 mph - N/A   Overcast
3:55 AM 37.4 °F 32.8 °F 21.2 °F 52% 30.15 in 10.0 mi NNE 5.8 mph - N/A   Overcast
4:15 AM 37.4 °F 33.8 °F 23.0 °F 56% 30.16 in 10.0 mi NNE 4.6 mph - N/A   Overcast
4:35 AM 37.4 °F 33.8 °F 21.2 °F 52% 30.15 in 10.0 mi NE 4.6 mph - N/A   Overcast
4:55 AM 37.4 °F 33.8 °F 21.2 °F 52% 30.15 in 10.0 mi NE 4.6 mph - N/A   Overcast
5:15 AM 37.4 °F 33.8 °F 21.2 °F 52% 30.16 in 10.0 mi NE 4.6 mph - N/A   Overcast
5:35 AM 37.4 °F 33.8 °F 21.2 °F 52% 30.17 in 10.0 mi NNE 4.6 mph - N/A   Overcast
5:55 AM 37.4 °F 33.8 °F 21.2 °F 52% 30.18 in 10.0 mi NNE 4.6 mph - N/A   Overcast
6:15 AM 37.4 °F 33.8 °F 19.4 °F 48% 30.18 in 10.0 mi NE 4.6 mph - N/A   Overcast
6:35 AM 37.4 °F 32.8 °F 21.2 °F 52% 30.18 in 10.0 mi NE 5.8 mph - N/A   Overcast
6:55 AM 37.4 °F 33.8 °F 19.4 °F 48% 30.19 in 10.0 mi NNE 4.6 mph - N/A   Overcast
7:15 AM 37.4 °F 33.8 °F 21.2 °F 52% 30.18 in 10.0 mi NE 4.6 mph - N/A   Overcast
7:35 AM 37.4 °F - 21.2 °F 52% 30.20 in 10.0 mi Calm Calm - N/A   Overcast
7:55 AM 37.4 °F 34.9 °F 23.0 °F 56% 30.20 in 10.0 mi North 3.5 mph - N/A   Overcast
8:15 AM 37.4 °F - 21.2 °F 52% 30.22 in 10.0 mi Calm Calm - N/A   Overcast
8:35 AM 37.4 °F 34.9 °F 21.2 °F 52% 30.20 in 10.0 mi East 3.5 mph - N/A   Overcast
8:56 AM 37.4 °F - 21.2 °F 52% 30.21 in 10.0 mi Calm Calm - N/A   Overcast
9:15 AM 37.4 °F - 21.2 °F 52% 30.21 in 10.0 mi Calm Calm - N/A   Mostly Cloudy
9:35 AM 39.2 °F - 21.2 °F 49% 30.21 in 10.0 mi Calm Calm - N/A   Scattered Clouds
9:55 AM 39.2 °F - 21.2 °F 49% 30.21 in 10.0 mi Calm Calm - N/A   Clear
10:15 AM 41.0 °F - 23.0 °F 49% 30.22 in 10.0 mi Calm Calm - N/A   Clear
10:35 AM 42.8 °F 40.1 °F 24.8 °F 49% 30.22 in 10.0 mi South 4.6 mph - N/A   Clear
10:55 AM 44.6 °F 40.7 °F 24.8 °F 46% 30.21 in 10.0 mi WSW 6.9 mph - N/A   Clear
11:15 AM 44.6 °F 40.2 °F 24.8 °F 46% 30.20 in 10.0 mi SW 8.1 mph - N/A   Clear
11:36 AM 44.6 °F 40.2 °F 26.6 °F 49% 30.18 in 10.0 mi SW 8.1 mph - N/A   Clear
11:56 AM 46.4 °F 41.5 °F 28.4 °F 50% 30.18 in 10.0 mi SW 10.4 mph - N/A   Clear
12:15 PM 46.4 °F 41.5 °F 28.4 °F 50% 30.18 in 10.0 mi SW 10.4 mph 18.4 mph N/A   Clear
12:35 PM 46.4 °F 40.4 °F 30.2 °F 53% 30.17 in 10.0 mi SW 13.8 mph 18.4 mph N/A   Clear
12:55 PM 46.4 °F 40.1 °F 30.2 °F 53% 30.16 in 10.0 mi SW 15.0 mph - N/A   Clear
1:15 PM 46.4 °F 41.5 °F 30.2 °F 53% 30.15 in 10.0 mi SW 10.4 mph 19.6 mph N/A   Clear
1:35 PM 46.4 °F 41.1 °F 30.2 °F 53% 30.15 in 10.0 mi SW 11.5 mph 19.6 mph N/A   Clear
1:55 PM 48.2 °F - 32.0 °F 54% 30.17 in 10.0 mi WSW 10.4 mph 17.3 mph N/A   Clear
2:15 PM 48.2 °F - 30.2 °F 50% 30.17 in 10.0 mi WSW 9.2 mph 20.7 mph N/A   Clear
2:35 PM 50.0 °F - 32.0 °F 50% 30.17 in 10.0 mi WSW 13.8 mph 21.9 mph N/A   Clear
2:55 PM 50.0 °F - 30.2 °F 47% 30.17 in 10.0 mi West 13.8 mph 18.4 mph N/A   Clear
3:15 PM 50.0 °F - 30.2 °F 47% 30.17 in 10.0 mi WSW 12.7 mph 20.7 mph N/A   Clear
3:35 PM 50.0 °F - 30.2 °F 47% 30.17 in 10.0 mi West 9.2 mph 19.6 mph N/A   Clear
3:55 PM 50.0 °F - 30.2 °F 47% 30.17 in 10.0 mi West 11.5 mph 17.3 mph N/A   Clear
4:15 PM 50.0 °F - 30.2 °F 47% 30.17 in 10.0 mi WSW 9.2 mph - N/A   Clear
4:35 PM 48.2 °F - 30.2 °F 50% 30.16 in 10.0 mi WSW 4.6 mph - N/A   Clear
4:55 PM 46.4 °F 42.9 °F 32.0 °F 57% 30.19 in 10.0 mi WSW 6.9 mph - N/A   Clear
5:15 PM 46.4 °F 43.5 °F 32.0 °F 57% 30.20 in 10.0 mi WSW 5.8 mph - N/A   Clear
5:35 PM 44.6 °F 43.1 °F 32.0 °F 61% 30.21 in 10.0 mi SSW 3.5 mph - N/A   Clear
5:55 PM 42.8 °F 40.1 °F 32.0 °F 66% 30.22 in 10.0 mi West 4.6 mph - N/A   Clear
6:15 PM 42.8 °F 41.1 °F 32.0 °F 66% 30.24 in 10.0 mi West 3.5 mph - N/A   Clear
6:35 PM 42.8 °F 39.3 °F 32.0 °F 66% 30.24 in 10.0 mi WSW 5.8 mph - N/A   Clear
6:55 PM 39.2 °F - 30.2 °F 70% 30.26 in 10.0 mi Calm Calm - N/A   Clear
7:15 PM 37.4 °F - 32.0 °F 81% 30.27 in 10.0 mi Calm Calm - N/A   Clear
7:35 PM 42.8 °F 40.1 °F 32.0 °F 66% 30.29 in 10.0 mi North 4.6 mph - N/A   Clear
7:55 PM 42.8 °F 39.3 °F 28.4 °F 57% 30.29 in 10.0 mi North 5.8 mph - N/A   Clear
8:15 PM 42.8 °F - 28.4 °F 57% 30.29 in 10.0 mi Calm Calm - N/A   Clear
8:35 PM 37.4 °F - 30.2 °F 75% 30.30 in 10.0 mi Calm Calm - N/A   Clear
8:56 PM 35.6 °F - 30.2 °F 81% 30.31 in 10.0 mi Calm Calm - N/A   Clear
9:16 PM 35.6 °F - 28.4 °F 75% 30.32 in 10.0 mi Calm Calm - N/A   Clear
9:35 PM 33.8 °F - 28.4 °F 81% 30.32 in 10.0 mi Calm Calm - N/A   Clear
9:55 PM 35.6 °F 30.7 °F 28.4 °F 75% 30.33 in 10.0 mi North 5.8 mph - N/A   Clear
10:15 PM 39.2 °F 35.0 °F 26.6 °F 61% 30.33 in 10.0 mi North 5.8 mph - N/A   Clear
10:35 PM 37.4 °F 34.9 °F 26.6 °F 65% 30.33 in 10.0 mi NE 3.5 mph - N/A   Clear
10:55 PM 35.6 °F 32.8 °F 26.6 °F 70% 30.34 in 10.0 mi NE 3.5 mph - N/A   Clear
11:15 PM 33.8 °F 30.8 °F 26.6 °F 75% 30.34 in 10.0 mi North 3.5 mph - N/A   Clear
11:35 PM 33.8 °F - 26.6 °F 75% 30.35 in 10.0 mi Calm Calm - N/A   Clear
11:55 PM 32.0 °F 28.7 °F 26.6 °F 80% 30.36 in 10.0 mi NNE 3.5 mph - N/A   Clear